Meteo Giornale » Osservazioni meteo Stati Uniti (USA) » New York City Central Park

ore: 20:51 - Osservazioni Meteo New York City Central Park
Lat. 40° 47' N Lon. 73° 58' W Alt. 47 metri s.l.m.

nuvoloso America/New_York

17 °C

Nuvoloso

Temp. 24 Ore

14 °C

22 °C

Nord

7.4 Km/h

Dew point 10 °C

Umidità 63 %

Visibilità  10 Km

Il sole sorge alle ore 05:26

Il sole tramonta alle ore 20:20

Data e Ora Cielo e Fenomeni T °C DP °C Um. % Pres. hPa Vis. km Vento km/h
Oggi h: 20:51 nuvoloso Nuvoloso 17 10 63 1015 10 N 7.4
Oggi h: 19:51 sereno Sereno 18 10 59 1015 10 N 0
Oggi h: 18:51 sereno Sereno 18 9 55 1014 10 S 20.3
Oggi h: 17:51 sereno Sereno 18 10 59 1015 10 N 0
Oggi h: 16:51 sereno Sereno 19 13 68 1014 10 N 9.3
Oggi h: 15:51 sereno Sereno 20 12 59 1014 10 N 0
Oggi h: 14:51 sereno Sereno 21 13 60 1014 10 N 0
Oggi h: 13:51 sereno Sereno 21 13 60 1015 10 S 13
Oggi h: 12:51 sereno Sereno 21 14 64 1015 10 N 7.4
Oggi h: 11:51 sereno Sereno 22 14 60 1015 10 N 0
Oggi h: 10:51 sereno Sereno 19 14 72 1014 10 N 7.4
Oggi h: 09:51 poco_nuvoloso Poco Nuvoloso 18 15 82 1014 13 N 0
Oggi h: 09:18 nuvoloso Nuvoloso 18 14 77 1015 11 N 0
Oggi h: 09:11 molto_nuvoloso Molto Nuvoloso 18 14 77 1015 11 S/SE 9.3
Oggi h: 08:51 foschia Foschia 17 14 82 1015 10 N 9.3
Oggi h: 07:51 foschia Foschia 16 14 87 1015 6 N 7.4
Oggi h: 07:40 foschia Foschia 16 14 87 1015 6 N 7.4
Oggi h: 07:00 foschia Foschia 15 14 93 1014 5 E 7.4
Oggi h: 06:51 foschia Foschia 15 14 93 1014 5 E 9.3
Oggi h: 05:51 foschia Foschia 14 14 100 1013 8 N 0
Oggi h: 05:39 foschia Foschia 15 13 87 1013 10 N 5.5
Oggi h: 04:51 coperto Coperto 15 14 93 1013 11 NE 7.4
Oggi h: 03:51 sereno Sereno 15 14 93 1012 11 N 5.5
Oggi h: 02:51 coperto Coperto 16 14 87 1013 14 N 5.5
Oggi h: 01:51 coperto Coperto 16 14 87 1013 10 N 0
Oggi h: 00:51 sereno Sereno 16 13 82 1013 10 N 0
Ieri h: 23:51 coperto Coperto 17 13 77 1014 10 N 7.4
Ieri h: 22:51 coperto Coperto 17 13 77 1014 10 N 5.5
Ieri h: 21:51 coperto Coperto 18 13 72 1014 10 N 0